Probability
0 0 0 0 0 0 0 0 0 0 0 0 0 0 0 0 0 0 1 2 2 1 0 0 0 0 0 0 0 0 0 0 0 0 0 0 0 0 0 0 0 0 0
0 0 0 0 0 0 0 0 0 0 0 0 0 0 0 0 0 0 0 1 1 0 0 0 0 0 0 0 0 0 0 0 0 0 0 0 0 0 0 0 0 0 0
0 0 0 0 0 0 0 0 0 0 0 0 0 0 0 0 0 0 0 0 0 0 0 0 0 0 0 0 0 0 0 0 0 0 0 0 0 0 0 0 0 0 0
0 0 0 0 0 0 0 0 0 0 0 0 0 0 0 0 0 0 0 0 0 0 0 0 0 0 0 0 0 0 0 0 0 0 0 0 0 0 0 0 0 0 0
0 0 0 0 0 0 0 0 0 0 0 0 0 0 0 0 0 0 0 0 0 0 0 0 0 0 0 0 0 0 0 0 0 0 0 0 0 0 0 0 0 0 0
0 0 0 0 0 0 0 0 0 0 0 0 0 0 0 0 0 0 0 0 0 0 0 0 0 0 0 0 0 0 0 0 0 0 0 0 0 0 0 0 0 0 0
0 0 0 0 0 0 0 0 0 0 0 0 0 0 0 0 0 0 0 0 0 0 0 0 0 0 0 0 0 0 0 0 0 0 0 0 0 0 0 0 0 0 0
0 0 0 0 1 0 0 0 0 0 0 0 0 0 0 0 0 0 0 0 0 0 0 0 0 0 0 0 0 0 0 0 0 0 0 0 0 0 0 0 0 0 0
0 0 0 0 0 0 0 0 0 0 0 0 0 0 0 0 0 0 0 0 0 0 0 0 0 0 0 0 0 0 0 0 0 0 0 0 0 0 0 0 0 0 0
0 0 0 0 0 0 0 0 0 0 0 0 0 0 0 0 0 0 0 0 0 0 0 0 0 0 0 0 0 0 0 0 0 0 0 0 0 0 0 0 0 0 0
0 0 1 1 1 0 0 0 0 0 0 0 0 0 0 0 0 0 0 0 0 0 0 0 0 0 0 0 0 0 0 0 0 0 0 0 0 0 0 0 0 0 0
1 1 2 2 2 1 0 0 0 0 0 0 0 0 0 0 0 0 0 0 0 0 0 0 0 0 0 0 0 0 0 0 0 0 0 0 0 0 0 0 0 0 0
2 3 3 3 2 1 0 0 0 0 0 0 0 0 0 0 0 0 0 0 0 0 0 0 0 0 0 0 0 0 0 0 0 0 0 0 0 0 0 0 0 0 0
5 4 4 3 1 0 0 0 0 0 0 0 0 0 0 0 0 0 0 0 0 0 0 0 0 0 0 0 0 0 0 0 0 0 0 0 0 0 0 0 0 0 0
7 5 3 2 0 0 0 0 0 0 0 0 0 0 0 0 0 0 0 0 0 0 0 0 0 0 0 0 0 0 0 0 0 0 0 0 0 0 0 0 0 0 0
7 6 3 1 1 1 0 0 0 0 0 0 0 0 0 0 0 0 0 0 0 0 0 0 0 0 0 0 0 0 0 0 0 0 0 0 0 0 0 0 0 0 0
6 5 3 2 2 2 1 0 0 0 0 0 0 0 0 0 0 0 0 0 0 0 0 0 0 0 0 0 0 0 0 0 0 0 0 0 0 0 0 0 0 0 0
6 5 4 3 3 3 2 1 0 0 0 0 0 0 0 0 0 0 0 0 0 0 0 0 0 0 0 0 0 0 0 0 0 0 0 0 0 0 0 0 0 0 0
6 6 4 4 4 3 2 1 0 0 0 0 0 0 0 0 0 0 0 0 0 0 0 0 0 0 0 0 0 0 0 0 0 0 0 0 0 0 0 0 1 0 0
6 5 4 4 4 4 3 2 1 1 1 0 0 0 0 0 0 0 0 0 0 0 0 0 0 0 0 0 0 0 0 0 0 0 0 0 0 0 0 0 0 0 0
4 4 4 5 6 5 5 4 3 3 2 0 0 0 0 0 0 0 0 0 0 0 0 0 0 0 0 0 0 0 0 0 0 0 0 0 0 0 0 0 0 0 0
4 5 6 7 7 6 6 5 5 3 1 0 0 0 0 0 0 0 0 0 0 0 0 0 0 0 0 0 0 0 0 0 0 0 0 0 0 0 0 0 0 0 0
6 8 9 7 6 5 6 6 5 3 2 0 0 0 0 0 1 1 0 0 0 0 1 1 1 1 0 0 0 0 0 0 0 0 0 0 0 0 0 0 0 1 1
10 10 10 7 4 3 5 5 4 4 3 1 0 0 0 0 1 1 0 0 0 1 3 3 2 1 1 1 0 0 0 0 0 0 0 0 0 0 0 0 0 0 0
12 12 10 7 3 2 3 4 3 3 3 2 1 0 0 0 1 1 0 1 1 2 5 5 4 3 3 2 1 0 0 0 0 0 0 0 0 0 0 0 0 0 0
12 12 10 7 4 2 3 3 3 3 3 2 2 1 0 0 0 0 1 2 3 4 6 6 6 5 5 3 1 0 0 0 0 0 0 0 0 0 0 0 0 0 0
Wind_Speed
0 1 6 8 9 10 11 11 11 11 12 12 12 12 12 13 13 14 14 14 14 15 15 16 16 16 16 16 16 15 15 14 14 15 15 15 15 15 15 15 14 11 15
2 2 7 8 9 10 10 10 11 11 11 12 12 12 12 13 13 13 13 14 14 15 15 15 15 15 15 15 15 14 14 14 14 14 14 14 14 14 14 14 13 9 14
3 2 5 8 9 9 9 10 10 11 11 11 11 11 12 12 12 13 13 13 14 14 15 15 15 14 14 14 14 14 13 13 13 14 13 8 10 13 13 13 13 13 13
4 2 4 8 8 9 9 9 10 10 11 11 11 11 11 12 12 12 13 13 13 13 14 14 13 13 13 13 13 12 12 13 13 12 7 6 7 11 12 12 12 13 13
3 2 3 8 8 9 9 9 9 10 10 10 10 10 11 11 11 12 12 12 12 12 12 12 12 12 12 12 12 11 11 11 12 10 6 5 5 10 11 11 12 12 12
3 2 3 8 8 8 8 8 9 9 9 9 10 10 10 10 10 11 11 11 11 11 11 11 11 11 11 11 11 11 11 11 9 7 6 5 5 9 11 11 11 11 11
3 1 2 7 8 7 7 8 8 8 9 9 9 9 9 9 10 10 10 10 10 10 10 10 10 10 10 9 9 9 10 11 7 6 5 5 5 9 11 10 10 11 11
3 2 2 6 7 7 7 7 8 8 8 8 8 9 8 8 8 9 9 9 9 9 9 9 9 9 8 8 9 9 10 10 7 6 5 4 7 9 10 10 10 10 10
3 2 2 2 3 5 6 7 7 7 7 7 7 8 8 7 7 7 8 8 8 8 8 8 7 7 7 8 8 8 9 10 6 4 5 4 7 9 10 10 10 10 9
2 2 2 2 2 2 2 5 6 7 6 7 7 7 7 6 6 6 6 6 7 7 7 7 7 6 6 6 7 8 9 8 5 4 3 4 8 9 9 9 10 9 9
2 1 1 1 1 2 1 3 4 5 5 5 4 6 5 3 3 3 4 5 5 6 6 6 5 5 5 5 6 7 6 3 4 3 2 6 8 8 9 9 9 9 9
3 2 1 1 1 1 1 2 2 2 2 2 2 3 3 2 2 2 2 3 4 4 4 5 5 4 4 3 4 5 2 3 3 2 3 7 7 8 8 8 9 8 8
4 3 3 2 1 1 1 1 1 1 2 2 2 2 2 2 2 2 2 2 2 3 2 3 3 2 2 2 2 2 2 2 2 2 3 6 7 7 8 8 8 8 8
3 4 3 3 2 2 1 1 1 1 1 1 1 1 1 1 1 1 1 1 1 1 2 2 1 1 1 1 2 2 2 2 2 1 2 6 6 7 7 8 8 8 7
4 4 3 3 3 2 2 1 1 1 1 1 0 0 1 1 0 0 1 1 1 1 1 1 1 1 1 1 1 2 2 2 2 2 1 5 6 6 7 8 8 8 8
4 4 3 3 3 3 2 1 1 1 1 1 0 1 1 1 1 1 0 0 1 0 0 1 1 1 1 1 1 1 1 2 2 2 2 3 6 6 7 8 8 8 9
4 4 4 4 3 3 3 2 1 1 1 1 1 1 1 1 1 1 0 0 1 0 0 1 1 1 1 1 1 1 1 2 2 3 3 2 3 5 7 7 8 8 9
4 4 3 3 3 3 2 2 1 1 1 1 0 1 1 2 2 1 1 0 1 0 1 1 1 1 1 1 0 0 1 1 2 3 2 2 2 2 4 7 8 8 8
4 4 3 2 3 3 2 1 1 1 1 0 0 0 1 1 2 2 1 0 0 0 0 1 1 1 1 1 0 0 1 1 2 2 3 3 3 3 2 4 6 6 8
4 3 3 2 2 2 2 2 1 1 0 0 1 1 1 1 1 2 1 1 1 1 0 1 1 1 1 1 0 1 1 1 1 1 2 2 2 3 3 3 2 3 6
3 3 3 2 2 2 2 1 1 0 0 0 1 1 1 1 2 2 1 1 1 1 1 2 1 1 1 1 1 1 2 1 0 1 1 1 2 3 2 2 2 2 2
4 4 3 3 3 2 2 2 1 1 1 1 1 0 1 1 1 1 1 1 1 1 1 2 2 1 1 1 2 1 1 2 2 1 0 1 1 1 1 2 2 2 2
5 4 4 3 3 3 2 2 2 2 1 1 1 1 0 1 1 1 1 1 1 2 2 2 3 3 2 1 1 2 2 1 1 2 1 1 1 1 0 1 1 2 2
6 4 4 3 3 2 3 3 3 2 1 1 1 1 1 0 0 1 1 1 1 2 2 3 3 2 3 2 1 1 2 3 2 1 1 1 1 1 1 1 1 1 1
6 5 4 3 3 2 3 3 3 2 1 0 0 1 1 1 1 0 0 1 1 1 2 2 2 2 2 2 2 2 1 1 1 2 1 1 1 1 1 0 0 0 0
5 5 4 4 3 3 4 3 3 3 2 1 0 0 1 1 1 1 0 0 1 1 1 2 2 2 2 2 2 2 2 2 3 3 2 1 0 1 1 1 1 0 0
Wind_Direction
60 62 109 101 97 94 90 86 86 86 87 91 93 95 97 98 98 98 99 100 102 103 103 106 110 111 112 113 114 116 118 118 119 120 120 119 116 115 114 114 112 112 115
138 101 113 106 101 98 95 93 91 90 90 93 94 94 95 98 99 99 100 101 103 104 104 105 108 110 111 113 114 116 118 119 121 122 122 121 119 118 118 117 118 119 119
108 96 113 112 107 102 100 98 96 94 93 95 96 96 97 98 99 100 101 101 102 104 106 107 109 111 112 113 115 117 118 119 121 120 116 110 120 124 124 123 123 121 120
116 102 117 116 110 107 103 100 99 98 96 95 98 100 100 100 100 99 99 101 102 103 105 108 110 111 112 114 116 116 118 119 121 118 106 109 119 126 126 125 125 124 122
112 109 135 120 114 110 107 103 101 100 99 97 98 101 102 102 101 101 99 100 101 103 105 107 108 109 110 114 116 117 121 123 121 112 105 103 107 129 130 129 129 127 126
118 119 144 126 119 114 110 108 105 103 102 102 101 102 103 104 105 104 102 101 102 103 105 107 108 109 110 113 116 119 123 123 114 107 108 112 118 133 134 134 133 132 130
124 120 143 131 126 122 117 113 108 108 107 106 105 104 106 106 105 106 106 103 101 104 106 107 109 110 110 115 118 119 120 121 112 111 114 120 130 136 136 134 133 132 130
124 107 111 133 131 127 122 116 112 110 109 107 108 107 106 107 107 106 106 106 105 106 108 108 108 108 106 111 115 116 122 123 118 119 120 127 137 139 138 137 137 136 136
99 89 67 83 113 123 123 121 117 112 109 108 108 108 108 109 110 109 109 110 109 107 108 107 106 104 101 107 115 119 125 124 118 124 129 131 142 144 144 144 143 143 143
83 75 71 61 58 63 92 122 121 117 112 108 108 109 108 106 107 109 107 111 109 107 106 105 105 103 100 106 116 119 124 121 118 121 125 143 147 149 149 149 148 148 147
152 90 85 83 72 65 76 119 114 116 111 102 98 104 89 57 55 73 104 116 116 114 109 105 104 103 96 100 111 116 114 116 123 127 138 154 157 157 155 154 156 156 155
193 200 183 150 127 96 110 79 59 67 69 66 57 64 65 61 45 51 51 102 114 111 107 103 97 88 78 76 92 103 111 128 133 144 164 168 168 166 164 163 165 164 162
195 200 192 192 180 149 88 95 78 55 54 54 50 63 67 55 36 34 24 29 36 56 62 69 68 65 78 87 90 101 125 134 143 162 170 174 178 177 176 175 174 172 169
184 202 196 185 177 176 159 129 122 99 77 58 24 66 89 71 39 29 21 24 32 41 56 51 63 69 85 103 126 133 143 149 155 164 187 186 188 188 187 185 184 184 182
194 203 196 177 178 178 174 190 158 170 163 192 189 126 135 128 139 44 346 2 16 44 73 54 52 58 53 66 119 139 152 161 170 178 196 196 195 196 196 193 194 196 194
205 205 194 184 185 173 178 187 194 196 188 192 207 206 169 149 149 141 148 337 322 329 107 99 81 73 61 93 95 144 177 174 183 186 201 214 213 210 204 203 203 203 203
197 195 192 191 184 182 186 197 195 194 175 195 224 207 170 157 158 158 177 269 281 280 101 84 74 83 95 97 98 162 192 193 192 199 206 214 226 225 216 214 215 213 213
181 180 192 187 171 180 183 183 158 148 167 223 231 206 180 170 170 162 163 276 296 60 101 108 108 102 82 91 183 251 214 216 211 206 206 212 219 232 232 226 223 223 225
180 176 175 170 160 164 159 139 125 126 155 213 196 219 219 184 174 167 167 231 159 117 137 153 109 137 148 158 229 265 253 239 232 218 210 218 218 224 236 246 239 234 235
169 166 167 157 147 139 119 100 81 75 42 256 209 223 214 192 174 165 164 198 153 142 150 133 130 127 151 156 115 24 336 270 239 230 228 223 220 223 228 241 248 250 248
160 158 167 166 162 139 122 130 134 183 243 283 251 233 219 200 182 168 175 183 170 181 195 173 144 132 111 119 93 28 358 354 336 265 249 229 223 224 210 218 228 238 255
181 179 178 181 171 167 157 148 153 144 171 216 282 299 215 205 198 183 177 199 199 182 185 178 163 161 180 145 134 109 357 352 7 3 336 240 240 214 210 219 220 228 238
188 193 189 183 174 174 158 118 88 67 39 27 6 329 277 201 203 200 196 193 199 190 204 206 185 178 187 207 176 156 160 226 315 353 9 13 21 56 257 243 232 236 232
192 186 180 172 168 167 152 142 141 145 174 242 257 274 319 46 254 231 212 199 194 190 206 219 199 191 179 199 203 198 182 168 172 306 349 14 35 38 350 304 278 245 228
180 174 173 165 164 158 151 153 147 153 192 238 342 360 6 6 359 332 233 200 200 197 209 221 211 203 194 194 190 175 164 153 177 181 246 321 17 19 20 355 347 335 218
169 166 164 162 167 157 153 156 161 170 184 175 257 13 349 338 336 340 37 171 192 201 219 228 220 213 210 204 197 186 177 179 186 183 202 217 280 350 18 18 11 355 77